| time (UTC) | temp F | wind direction | speed MPH | gust MPH | rain 1hr in | rain 24hr in | rain mn in | humidity % | barometer mb |
| 20260503195928 | 51 | 262 | 5.0 | 6.0 | 0.00 | 0.00 | 0.00 | 51 | 1009.8 |
| 20260503195426 | 51 | 269 | 7.0 | 8.0 | 0.00 | 0.00 | 0.00 | 50 | 1009.9 |
| 20260503194922 | 51 | 244 | 5.0 | 6.0 | 0.00 | 0.00 | 0.00 | 51 | 1010.2 |
| 20260503194419 | 51 | 251 | 4.0 | 5.0 | 0.00 | 0.00 | 0.00 | 50 | 1010.0 |
| 20260503193915 | 51 | 249 | 6.0 | 7.0 | 0.00 | 0.00 | 0.00 | 51 | 1010.2 |
| 20260503193410 | 51 | 245 | 3.0 | 3.0 | 0.00 | 0.00 | 0.00 | 52 | 1010.2 |
| 20260503192906 | 51 | 260 | 5.0 | 5.0 | 0.00 | 0.00 | 0.00 | 50 | 1010.2 |
| 20260503192403 | 51 | 252 | 5.0 | 6.0 | 0.00 | 0.00 | 0.00 | 51 | 1010.3 |
| 20260503191859 | 51 | 242 | 4.0 | 6.0 | 0.00 | 0.00 | 0.00 | 51 | 1010.0 |
| 20260503191356 | 51 | 213 | 2.0 | 2.0 | 0.00 | 0.00 | 0.00 | 49 | 1010.2 |
| 20260503190852 | 51 | 257 | 7.0 | 8.0 | 0.00 | 0.00 | 0.00 | 49 | 1010.2 |
| 20260503190350 | 51 | 240 | 3.0 | 3.0 | 0.00 | 0.00 | 0.00 | 52 | 1010.2 |
| 20260503185846 | 51 | 289 | 4.0 | 5.0 | 0.00 | 0.00 | 0.00 | 52 | 1010.3 |
| 20260503185343 | 51 | 228 | 2.0 | 2.0 | 0.00 | 0.00 | 0.00 | 50 | 1010.4 |
| 20260503184842 | 51 | 252 | 4.0 | 5.0 | 0.00 | 0.00 | 0.00 | 50 | 1010.1 |
| 20260503184339 | 51 | 215 | 3.0 | 3.0 | 0.00 | 0.00 | 0.00 | 51 | 1010.5 |
| 20260503183835 | 51 | 244 | 5.0 | 6.0 | 0.00 | 0.00 | 0.00 | 48 | 1010.4 |
| 20260503183332 | 51 | 250 | 5.0 | 5.0 | 0.00 | 0.00 | 0.00 | 49 | 1010.3 |
| 20260503182830 | 50 | 250 | 3.0 | 5.0 | 0.00 | 0.00 | 0.00 | 53 | 1010.5 |
| 20260503182329 | 50 | 193 | 4.0 | 5.0 | 0.00 | 0.00 | 0.00 | 51 | 1010.8 |
| 20260503181825 | 51 | 243 | 4.0 | 5.0 | 0.00 | 0.00 | 0.00 | 47 | 1010.8 |
| 20260503181322 | 51 | 240 | 5.0 | 6.0 | 0.00 | 0.00 | 0.00 | 50 | 1010.9 |
| 20260503180818 | 51 | 242 | 3.0 | 3.0 | 0.00 | 0.00 | 0.00 | 47 | 1010.7 |
| 20260503180317 | 50 | 234 | 4.0 | 5.0 | 0.00 | 0.00 | 0.00 | 46 | 1010.9 |
| 20260503175813 | 50 | 196 | 3.0 | 3.0 | 0.00 | 0.00 | 0.00 | 45 | 1011.1 |
| 20260503175311 | 51 | 216 | 5.0 | 6.0 | 0.00 | 0.00 | 0.00 | 45 | 1011.2 |
| 20260503174806 | 50 | 252 | 4.0 | 5.0 | 0.00 | 0.00 | 0.00 | 49 | 1011.2 |
| 20260503174305 | 50 | 240 | 3.0 | 3.0 | 0.00 | 0.00 | 0.00 | 45 | 1011.1 |
| 20260503173800 | 50 | 242 | 5.0 | 7.0 | 0.00 | 0.00 | 0.00 | 47 | 1011.2 |
| 20260503173255 | 50 | 253 | 4.0 | 5.0 | 0.00 | 0.00 | 0.00 | 46 | 1011.3 |
| 20260503172753 | 49 | 259 | 4.0 | 5.0 | 0.00 | 0.00 | 0.00 | 49 | 1011.1 |
| 20260503172250 | 48 | 252 | 3.0 | 5.0 | 0.00 | 0.00 | 0.00 | 47 | 1011.5 |
| 20260503171746 | 49 | 201 | 3.0 | 3.0 | 0.00 | 0.00 | 0.00 | 47 | 1011.2 |
| 20260503171243 | 49 | 215 | 3.0 | 3.0 | 0.00 | 0.00 | 0.00 | 46 | 1011.2 |
| 20260503170740 | 49 | 203 | 2.0 | 2.0 | 0.00 | 0.00 | 0.00 | 50 | 1011.3 |
| 20260503170237 | 48 | 212 | 2.0 | 3.0 | 0.00 | 0.00 | 0.00 | 45 | 1011.4 |
| 20260503160159 | 46 | 163 | 2.0 | 2.0 | 0.00 | 0.00 | 0.00 | 47 | 1012.3 |
| 20260503150629 | 46 | 203 | 3.0 | 3.0 | 0.00 | 0.00 | 0.00 | 49 | 1012.7 |
| 20260503150125 | 45 | 219 | 2.0 | 2.0 | 0.00 | 0.00 | 0.00 | 50 | 1012.9 |
| 20260503131019 | 40 | 177 | 2.0 | 2.0 | 0.00 | 0.00 | 0.00 | 72 | 1013.2 |
| 20260503130517 | 40 | 253 | 3.0 | 3.0 | 0.00 | 0.00 | 0.00 | 71 | 1013.2 |
| 20260503110407 | 36 | 184 | 1.0 | 2.0 | 0.00 | 0.00 | 0.00 | 84 | 1012.7 |
| 20260503090258 | 37 | 202 | 1.0 | 1.0 | 0.00 | 0.00 | 0.00 | 83 | 1012.4 |
| 20260503081225 | 37 | 203 | 1.0 | 1.0 | 0.00 | 0.00 | 0.00 | 82 | 1012.4 |
| 20260503080721 | 37 | 207 | 1.0 | 2.0 | 0.00 | 0.00 | 0.00 | 82 | 1012.6 |
| 20260503080218 | 37 | 212 | 1.0 | 2.0 | 0.00 | 0.00 | 0.00 | 82 | 1012.3 |
| 20260503072654 | 38 | 234 | 3.0 | 3.0 | 0.00 | 0.00 | 0.00 | 81 | 1012.4 |
| 20260503072151 | 38 | 208 | 2.0 | 2.0 | 0.00 | 0.00 | 0.00 | 81 | 1012.4 |
| 20260503071648 | 38 | 225 | 2.0 | 2.0 | 0.00 | 0.00 | 0.00 | 81 | 1012.4 |
| 20260503071145 | 38 | 215 | 3.0 | 3.0 | 0.00 | 0.00 | 0.00 | 81 | 1012.3 |
| 20260503070642 | 38 | 217 | 3.0 | 3.0 | 0.00 | 0.00 | 0.00 | 82 | 1012.4 |
| 20260503070140 | 38 | 235 | 2.0 | 3.0 | 0.00 | 0.00 | 0.00 | 82 | 1012.3 |
| 20260503060104 | 38 | 196 | 1.0 | 2.0 | 0.00 | 0.00 | 0.00 | 82 | 1012.6 |
| 20260503055055 | 38 | 213 | 2.0 | 2.0 | 0.00 | 0.00 | 0.00 | 82 | 1012.7 |
| 20260503054551 | 38 | 206 | 1.0 | 1.0 | 0.00 | 0.00 | 0.00 | 82 | 1012.6 |
| 20260503054049 | 38 | 215 | 2.0 | 2.0 | 0.00 | 0.00 | 0.00 | 82 | 1012.8 |
| 20260503053547 | 38 | 201 | 1.0 | 1.0 | 0.00 | 0.00 | 0.00 | 82 | 1012.7 |
| 20260503053044 | 38 | 190 | 1.0 | 1.0 | 0.00 | 0.00 | 0.00 | 82 | 1012.6 |
| 20260503052541 | 38 | 231 | 2.0 | 2.0 | 0.00 | 0.00 | 0.00 | 82 | 1012.5 |
| 20260503052037 | 38 | 193 | 1.0 | 1.0 | 0.00 | 0.00 | 0.00 | 82 | 1012.8 |
| 20260503051533 | 38 | 196 | 1.0 | 1.0 | 0.00 | 0.00 | 0.00 | 83 | 1013.0 |
| 20260503051031 | 38 | 205 | 1.0 | 1.0 | 0.00 | 0.00 | 0.00 | 83 | 1013.2 |
| 20260503050526 | 38 | 188 | 1.0 | 1.0 | 0.00 | 0.00 | 0.00 | 83 | 1013.1 |
| 20260503050024 | 38 | 191 | 1.0 | 1.0 | 0.00 | 0.00 | 0.00 | 83 | 1013.1 |
| 20260503045521 | 38 | 190 | 1.0 | 1.0 | 0.00 | 0.00 | 0.00 | 83 | 1013.0 |
| 20260503045018 | 38 | 195 | 1.0 | 1.0 | 0.00 | 0.00 | 0.00 | 83 | 1013.0 |
| 20260503044514 | 38 | 210 | 2.0 | 2.0 | 0.00 | 0.00 | 0.00 | 83 | 1013.1 |
| 20260503044012 | 38 | 201 | 2.0 | 2.0 | 0.00 | 0.00 | 0.00 | 83 | 1013.2 |
| 20260503043508 | 38 | 188 | 1.0 | 1.0 | 0.00 | 0.00 | 0.00 | 83 | 1013.1 |
| 20260503043004 | 38 | 184 | 1.0 | 1.0 | 0.00 | 0.00 | 0.00 | 83 | 1013.1 |
| 20260503042501 | 38 | 191 | 1.0 | 1.0 | 0.00 | 0.00 | 0.00 | 83 | 1013.3 |
| 20260503041958 | 38 | 192 | 1.0 | 1.0 | 0.00 | 0.00 | 0.00 | 83 | 1013.4 |
| 20260503041455 | 38 | 179 | 1.0 | 1.0 | 0.00 | 0.00 | 0.00 | 83 | 1013.4 |
| 20260503040953 | 38 | 179 | 0.0 | 0.0 | 0.00 | 0.00 | 0.00 | 83 | 1013.4 |
| 20260503040450 | 38 | 189 | 1.0 | 2.0 | 0.00 | 0.00 | 0.00 | 83 | 1013.4 |
| 20260503035947 | 38 | 182 | 0.0 | 1.0 | 0.00 | 0.00 | 0.00 | 83 | 1013.4 |
| 20260503035444 | 38 | 197 | 1.0 | 1.0 | 0.00 | 0.00 | 0.00 | 83 | 1013.5 |
| 20260503034941 | 38 | 182 | 1.0 | 1.0 | 0.00 | 0.00 | 0.00 | 83 | 1013.4 |
| 20260503034438 | 38 | 187 | 1.0 | 1.0 | 0.00 | 0.00 | 0.00 | 83 | 1013.4 |
| 20260503033935 | 38 | 185 | 1.0 | 1.0 | 0.00 | 0.00 | 0.00 | 83 | 1013.3 |
| 20260503033433 | 38 | 183 | 0.0 | 1.0 | 0.00 | 0.00 | 0.00 | 83 | 1013.3 |
| 20260503032931 | 38 | 199 | 1.0 | 1.0 | 0.00 | 0.00 | 0.00 | 83 | 1013.5 |
| 20260503032429 | 38 | 224 | 1.0 | 2.0 | 0.00 | 0.00 | 0.00 | 83 | 1013.4 |
| 20260503031926 | 38 | 191 | 1.0 | 1.0 | 0.00 | 0.00 | 0.00 | 83 | 1013.3 |
| 20260503031424 | 38 | 215 | 1.0 | 2.0 | 0.00 | 0.00 | 0.00 | 83 | 1013.5 |
| 20260503030920 | 38 | 206 | 1.0 | 2.0 | 0.00 | 0.00 | 0.00 | 83 | 1013.4 |
| 20260503030417 | 38 | 188 | 1.0 | 1.0 | 0.00 | 0.00 | 0.00 | 83 | 1013.6 |
| 20260503025914 | 38 | 178 | 1.0 | 1.0 | 0.00 | 0.00 | 0.00 | 83 | 1013.6 |
| 20260503025411 | 38 | 178 | 0.0 | 1.0 | 0.00 | 0.00 | 0.00 | 82 | 1013.6 |
| 20260503024908 | 38 | 177 | 0.0 | 1.0 | 0.00 | 0.00 | 0.00 | 82 | 1013.6 |
| 20260503024404 | 38 | 177 | 0.0 | 0.0 | 0.00 | 0.00 | 0.00 | 82 | 1013.6 |
| 20260503023901 | 38 | 177 | 0.0 | 0.0 | 0.00 | 0.00 | 0.00 | 81 | 1013.7 |
| 20260503023358 | 38 | 177 | 0.0 | 0.0 | 0.00 | 0.00 | 0.00 | 81 | 1013.6 |
| 20260503022855 | 38 | 177 | 0.0 | 0.0 | 0.00 | 0.00 | 0.00 | 81 | 1013.8 |
| 20260503022349 | 38 | 177 | 0.0 | 0.0 | 0.00 | 0.00 | 0.00 | 81 | 1013.9 |
| 20260503021846 | 38 | 177 | 0.0 | 0.0 | 0.00 | 0.00 | 0.00 | 82 | 1013.8 |
| 20260503021342 | 37 | 177 | 0.0 | 0.0 | 0.00 | 0.00 | 0.00 | 83 | 1014.1 |
| 20260503020840 | 37 | 177 | 0.0 | 0.0 | 0.00 | 0.00 | 0.00 | 83 | 1013.7 |
| 20260503020338 | 37 | 177 | 0.0 | 0.0 | 0.00 | 0.00 | 0.00 | 83 | 1014.2 |
| 20260503015834 | 38 | 177 | 0.0 | 0.0 | 0.00 | 0.00 | 0.00 | 82 | 1013.5 |
| 20260503015331 | 38 | 177 | 0.0 | 0.0 | 0.00 | 0.00 | 0.00 | 82 | 1014.1 |
| 20260503014827 | 38 | 177 | 0.0 | 0.0 | 0.00 | 0.00 | 0.00 | 82 | 1013.7 |
| 20260503014325 | 38 | 177 | 0.0 | 0.0 | 0.00 | 0.00 | 0.00 | 82 | 1013.9 |
| 20260503013822 | 38 | 177 | 0.0 | 0.0 | 0.00 | 0.00 | 0.00 | 81 | 1013.6 |
| 20260503013319 | 38 | 178 | 0.0 | 0.0 | 0.00 | 0.00 | 0.00 | 81 | 1013.7 |
| 20260503012816 | 38 | 178 | 0.0 | 0.0 | 0.00 | 0.00 | 0.00 | 81 | 1013.8 |
| 20260503012314 | 38 | 178 | 0.0 | 0.0 | 0.00 | 0.00 | 0.00 | 81 | 1013.7 |
| 20260503011810 | 38 | 178 | 1.0 | 1.0 | 0.00 | 0.00 | 0.00 | 81 | 1013.9 |
| 20260503011308 | 38 | 178 | 0.0 | 0.0 | 0.00 | 0.00 | 0.00 | 81 | 1013.8 |
| 20260503010804 | 38 | 180 | 1.0 | 1.0 | 0.00 | 0.00 | 0.00 | 81 | 1013.9 |
| 20260503010301 | 38 | 180 | 0.0 | 1.0 | 0.00 | 0.00 | 0.00 | 80 | 1013.8 |
| 20260503005758 | 39 | 184 | 1.0 | 1.0 | 0.00 | 0.00 | 0.00 | 80 | 1013.6 |
| 20260503005255 | 39 | 184 | 0.0 | 1.0 | 0.00 | 0.00 | 0.00 | 79 | 1013.5 |
| 20260503004751 | 39 | 185 | 0.0 | 0.0 | 0.00 | 0.00 | 0.00 | 78 | 1013.5 |
| 20260503004249 | 39 | 191 | 1.0 | 1.0 | 0.00 | 0.00 | 0.00 | 78 | 1013.6 |
| 20260503003746 | 39 | 191 | 0.0 | 1.0 | 0.00 | 0.00 | 0.00 | 77 | 1013.7 |
| 20260503003243 | 39 | 191 | 0.0 | 0.0 | 0.00 | 0.00 | 0.00 | 77 | 1013.4 |
| 20260503002740 | 39 | 191 | 0.0 | 0.0 | 0.00 | 0.00 | 0.00 | 77 | 1013.5 |
| 20260503002237 | 39 | 191 | 0.0 | 0.0 | 0.00 | 0.00 | 0.00 | 77 | 1013.3 |
| 20260503001733 | 39 | 191 | 0.0 | 0.0 | 0.00 | 0.00 | 0.00 | 77 | 1013.5 |
| 20260503001229 | 39 | 191 | 0.0 | 1.0 | 0.00 | 0.00 | 0.00 | 76 | 1013.4 |
| 20260503000728 | 39 | 191 | 0.0 | 1.0 | 0.00 | 0.00 | 0.00 | 77 | 1013.4 |
| 20260503000225 | 40 | 192 | 0.0 | 1.0 | 0.00 | 0.00 | 0.00 | 75 | 1013.6 |
| 20260502235721 | 40 | 193 | 1.0 | 1.0 | 0.00 | 0.00 | 0.00 | 75 | 1013.2 |
| 20260502235219 | 40 | 192 | 0.0 | 1.0 | 0.00 | 0.00 | 0.00 | 75 | 1013.3 |
| 20260502234715 | 40 | 193 | 0.0 | 1.0 | 0.00 | 0.00 | 0.00 | 75 | 1013.5 |
| 20260502234213 | 40 | 193 | 2.0 | 2.0 | 0.00 | 0.00 | 0.00 | 75 | 1013.2 |
| 20260502233708 | 40 | 194 | 1.0 | 2.0 | 0.00 | 0.00 | 0.00 | 73 | 1013.3 |
| 20260502233205 | 40 | 211 | 2.0 | 2.0 | 0.00 | 0.00 | 0.00 | 73 | 1013.0 |
| 20260502232701 | 40 | 197 | 1.0 | 1.0 | 0.00 | 0.00 | 0.00 | 73 | 1013.1 |
| 20260502232159 | 40 | 215 | 1.0 | 1.0 | 0.00 | 0.00 | 0.00 | 72 | 1013.0 |
| 20260502231655 | 41 | 215 | 3.0 | 3.0 | 0.00 | 0.00 | 0.00 | 73 | 1013.3 |
| 20260502231153 | 41 | 192 | 2.0 | 2.0 | 0.00 | 0.00 | 0.00 | 72 | 1012.9 |
| 20260502230651 | 41 | 194 | 1.0 | 1.0 | 0.00 | 0.00 | 0.00 | 73 | 1013.3 |
| 20260502230150 | 41 | 205 | 2.0 | 2.0 | 0.00 | 0.00 | 0.00 | 72 | 1013.1 |
| 20260502225644 | 41 | 200 | 1.0 | 1.0 | 0.00 | 0.00 | 0.00 | 73 | 1013.3 |
| 20260502225142 | 41 | 216 | 2.0 | 2.0 | 0.00 | 0.00 | 0.00 | 72 | 1013.2 |
| 20260502224638 | 41 | 216 | 3.0 | 3.0 | 0.00 | 0.00 | 0.00 | 73 | 1013.2 |
| 20260502224129 | 41 | 210 | 2.0 | 2.0 | 0.00 | 0.00 | 0.00 | 74 | 1013.0 |
| 20260502223627 | 41 | 195 | 1.0 | 1.0 | 0.00 | 0.00 | 0.00 | 74 | 1012.8 |
| 20260502223125 | 41 | 242 | 3.0 | 3.0 | 0.00 | 0.00 | 0.00 | 74 | 1013.0 |
| 20260502222623 | 41 | 225 | 2.0 | 2.0 | 0.00 | 0.00 | 0.00 | 74 | 1013.0 |
| 20260502222119 | 41 | 259 | 5.0 | 5.0 | 0.00 | 0.00 | 0.00 | 73 | 1013.0 |
| 20260502221614 | 41 | 170 | 1.0 | 1.0 | 0.00 | 0.00 | 0.00 | 73 | 1013.2 |
| 20260502221112 | 41 | 166 | 3.0 | 3.0 | 0.00 | 0.00 | 0.00 | 72 | 1013.1 |
| 20260502220608 | 42 | 253 | 2.0 | 3.0 | 0.00 | 0.00 | 0.00 | 70 | 1013.0 |
| 20260502220104 | 42 | 240 | 2.0 | 2.0 | 0.00 | 0.00 | 0.00 | 72 | 1013.1 |
| 20260502215602 | 42 | 197 | 2.0 | 2.0 | 0.00 | 0.00 | 0.00 | 72 | 1012.9 |
| 20260502215058 | 42 | 238 | 3.0 | 3.0 | 0.00 | 0.00 | 0.00 | 71 | 1013.1 |
| 20260502214555 | 42 | 258 | 3.0 | 3.0 | 0.00 | 0.00 | 0.00 | 71 | 1012.7 |
| 20260502214053 | 42 | 258 | 3.0 | 3.0 | 0.00 | 0.00 | 0.00 | 70 | 1013.1 |
| 20260502213549 | 42 | 205 | 1.0 | 2.0 | 0.00 | 0.00 | 0.00 | 71 | 1012.8 |
| 20260502213047 | 42 | 171 | 2.0 | 2.0 | 0.00 | 0.00 | 0.00 | 72 | 1013.1 |
| 20260502212546 | 42 | 187 | 2.0 | 2.0 | 0.00 | 0.00 | 0.00 | 71 | 1012.8 |
| 20260502212043 | 42 | 222 | 1.0 | 2.0 | 0.00 | 0.00 | 0.00 | 73 | 1012.7 |
| 20260502211539 | 42 | 193 | 2.0 | 3.0 | 0.00 | 0.00 | 0.00 | 71 | 1012.9 |
| 20260502211036 | 42 | 223 | 3.0 | 3.0 | 0.00 | 0.00 | 0.00 | 70 | 1012.9 |
| 20260502210533 | 42 | 229 | 2.0 | 2.0 | 0.00 | 0.00 | 0.00 | 69 | 1012.9 |
| 20260502210030 | 42 | 265 | 4.0 | 5.0 | 0.00 | 0.00 | 0.00 | 68 | 1013.0 |
| 20260502205527 | 43 | 178 | 2.0 | 2.0 | 0.00 | 0.00 | 0.00 | 67 | 1012.8 |
| 20260502205024 | 43 | 220 | 2.0 | 2.0 | 0.00 | 0.00 | 0.00 | 64 | 1012.8 |
| 20260502204521 | 44 | 253 | 3.0 | 3.0 | 0.00 | 0.00 | 0.00 | 62 | 1012.8 |
| 20260502204019 | 44 | 226 | 3.0 | 3.0 | 0.00 | 0.00 | 0.00 | 64 | 1012.8 |
| 20260502203515 | 43 | 260 | 1.0 | 1.0 | 0.00 | 0.00 | 0.00 | 64 | 1012.6 |
| 20260502203012 | 44 | 176 | 0.0 | 0.0 | 0.00 | 0.00 | 0.00 | 60 | 1012.7 |
| 20260502202508 | 44 | 144 | 0.0 | 1.0 | 0.00 | 0.00 | 0.00 | 64 | 1012.7 |
| 20260502202007 | 44 | 250 | 3.0 | 3.0 | 0.00 | 0.00 | 0.00 | 64 | 1012.4 |
| 20260502201503 | 43 | 173 | 2.0 | 2.0 | 0.00 | 0.00 | 0.00 | 63 | 1012.7 |
| 20260502200959 | 43 | 229 | 3.0 | 3.0 | 0.00 | 0.00 | 0.00 | 64 | 1012.9 |
| 20260502200455 | 43 | 227 | 3.0 | 3.0 | 0.00 | 0.00 | 0.00 | 64 | 1012.9 |